Regional Weather Roundup
Issued by NWS Burlington, VT

Current Version | Previous Version | Text Only | Print | Product List | Glossary Off
Versions: 1 2 3 4 5 6 7 8 9 10 11 12 13 14 15 16 17 18 19 20 21 22 23 24 25 26 27 28 29 30 31 32 33 34 35 36 37 38 39 40 41 42 43 44 45 46 47 48 49 50

000
ASUS41 KBTV 170730
RWRBTV
VERMONT REGIONAL WEATHER ROUNDUP
NATIONAL WEATHER SERVICE BURLINGTON VT
200 AM EST TUE JAN 17 2017

NOTE: "FAIR" INDICATES FEW OR NO CLOUDS BELOW 12,000 FEET WITH NO
SIGNIFICANT WEATHER AND/OR OBSTRUCTIONS TO VISIBILITY.

* THESE REPORTS ARE NOT UNDER NWS QUALITY CONTROL AND/OR DO NOT
  REPORT WEATHER SUCH AS PRECIPITATION AND FOG.

VTZ001>019-170800-
_____VERMONT_____


CITY           SKY/WX    TMP DP  RH WIND       PRES   REMARKS
BURLINGTON     CLEAR     23  16  74 CALM      30.22R
MONTPELIER     CLEAR     21  14  74 CALM      30.20R
MORRISVILLE    CLEAR     19  13  77 CALM      30.20R
ST. JOHNSBURY*   N/A     15  12  88 MISG      30.19R
LYNDONVILLE*   FAIR      19  14  84 CALM      30.18S
MIDDLEBURY*    FAIR      22  10  61 CALM      30.22R
RUTLAND*       CLEAR     23  16  74 E6        30.20S WCI  16
SPRINGFIELD    CLEAR     17  13  84 CALM      30.20R
HIGHGATE*      FAIR      26  18  73 CALM      30.23R
NEWPORT*       FAIR      28  17  62 NW3       30.19R
BENNINGTON     CLEAR     19  15  84 CALM      30.21S
SUTTON*          N/A     21 N/A N/A MISG        N/A
ISLAND POND*     N/A      7 N/A N/A CALM        N/A
GALLUP MILLS*    N/A      9 N/A N/A MISG        N/A
UNION VILLAGE*   N/A     14 N/A N/A MISG        N/A
MT. MANSFIELD*   N/A     18 N/A N/A W31         N/A  WCI  -2

_____LAKE CHAMPLAIN_____


CITY           SKY/WX    TMP DP  RH WIND       PRES   REMARKS
BURTON ISLAND*   N/A     32  27  80 SW3         N/A
COLCHESTER RF*   N/A     34  30  86 S7          N/A  WCI  28
DIAMOND ISL*     N/A     30  27  86 S1          N/A

$$

NYZ007-026>031-035-052-083-087-170800-
_____NORTHERN NEW YORK_____


CITY           SKY/WX    TMP DP  RH WIND       PRES   REMARKS
PLATTSBURGH    CLEAR     25  15  66 CALM      30.21R
SARANAC LAKE   CLEAR     11   7  84 CALM      30.16R
MASSENA        CLEAR     27  23  85 SW6       30.25R WCI  20
OGDENSBURG*    CLEAR     21  19  93 SW5       30.23S FOG     WCI  15
POTSDAM*       CLEAR     28  25  86 SW3       30.23S
WATERTOWN      CLOUDY    18  17  96 CALM      30.23S
FT DRUM        CLOUDY    23  17  77 SE8       30.21S WCI  14
ALBANY         CLOUDY    22  17  81 CALM      30.25R
GLENS FALLS    CLEAR     19  13  77 CALM      30.23R

$$
NHZ002-005-011-170800-
_____NEW HAMPSHIRE_____


CITY           SKY/WX    TMP DP  RH WIND       PRES   REMARKS
LEBANON        CLEAR     18  14  84 CALM      30.19R
KEENE          CLEAR     15  13  91 CALM      30.21S
MT WASHINGTON  PTCLDY    12   9  85 NW56        N/A  WCI -15
PLYMOUTH       FAIR      18  14  84 CALM      30.17R
WHITEFIELD     CLEAR     12   7  80 CALM      30.16R

$$

_____REGIONAL QUEBEC LOCATIONS_____


CITY           SKY/WX    TMP DP  RH WIND       PRES   REMARKS
MONTREAL       MOCLDY    28  25  86 SW5       30.21S WCI  23
QUEBEC CITY    MOCLDY    28  21  74 W9        30.15R WCI  20
SHERBROOKE     CLOUDY    30  23  74 W6        30.16R WCI  24

_____REGIONAL ONTARIO LOCATIONS_____


CITY           SKY/WX    TMP DP  RH WIND       PRES   REMARKS
OTTAWA         CLEAR     21  18  86 W2        30.22R

______KEY______
VSB  - VISIBILITY IN MILES
WCI  - WIND CHILL INDEX
HX   - HEAT INDEX
$$
NNNN



USA.gov is the U.S. government's official web portal to all federal, state and local government web resources and services.